| time (UTC) | temp F | wind direction | speed knots | gust knots | rain 1hr in | rain 24hr in | rain mn in | humidity % | barometer mb |
| 20260506143044 | 58 | 0 | 0.9 | 1.7 | 0.00 | 0.00 | 0.00 | 86 | 1008.9 |
| 20260506142541 | 58 | 0 | 0.0 | 2.6 | 0.00 | 0.00 | 0.00 | 86 | 1009.1 |
| 20260506142041 | 58 | 181 | 0.9 | 6.1 | 0.00 | 0.00 | 0.00 | 85 | 1009.3 |
| 20260506141548 | 58 | 186 | 0.9 | 7.0 | 0.00 | 0.00 | 0.00 | 86 | 1009.3 |
| 20260506141042 | 58 | 360 | 2.6 | 7.0 | 0.00 | 0.00 | 0.00 | 86 | 1009.3 |
| 20260506140541 | 58 | 215 | 1.7 | 7.0 | 0.00 | 0.00 | 0.00 | 86 | 1009.2 |
| 20260506140049 | 59 | 189 | 3.5 | 7.0 | 0.00 | 0.00 | 0.00 | 86 | 1009.1 |
| 20260506135542 | 59 | 175 | 3.5 | 8.7 | 0.00 | 0.00 | 0.00 | 86 | 1009.1 |
| 20260506135041 | 58 | 217 | 4.3 | 8.7 | 0.00 | 0.00 | 0.00 | 86 | 1009.4 |
| 20260506134546 | 58 | 360 | 2.6 | 6.1 | 0.00 | 0.00 | 0.00 | 87 | 1009.5 |
| 20260506134045 | 58 | 196 | 1.7 | 6.1 | 0.00 | 0.00 | 0.00 | 87 | 1009.4 |
| 20260506133541 | 58 | 189 | 0.9 | 2.6 | 0.00 | 0.00 | 0.00 | 87 | 1009.2 |
| 20260506133106 | 58 | 192 | 0.0 | 2.6 | 0.00 | 0.00 | 0.00 | 87 | 1009.3 |
| 20260506132541 | 58 | 165 | 0.0 | 1.7 | 0.00 | 0.00 | 0.00 | 88 | 1009.2 |
| 20260506132043 | 57 | 194 | 0.9 | 1.7 | 0.00 | 0.00 | 0.00 | 88 | 1009.2 |
| 20260506131545 | 57 | 191 | 0.0 | 1.7 | 0.00 | 0.00 | 0.00 | 88 | 1009.0 |
| 20260506131044 | 57 | 193 | 0.9 | 1.7 | 0.00 | 0.00 | 0.00 | 88 | 1009.0 |
| 20260506130542 | 57 | 167 | 0.9 | 1.7 | 0.00 | 0.00 | 0.00 | 88 | 1009.1 |
| 20260506130050 | 57 | 200 | 0.9 | 1.7 | 0.00 | 0.00 | 0.00 | 89 | 1009.1 |
| 20260506125541 | 57 | 198 | 0.9 | 1.7 | 0.00 | 0.00 | 0.00 | 88 | 1009.1 |
| 20260506125041 | 57 | 194 | 0.9 | 1.7 | 0.00 | 0.00 | 0.00 | 89 | 1009.2 |
| 20260506124546 | 57 | 217 | 0.0 | 3.5 | 0.00 | 0.00 | 0.00 | 89 | 1009.1 |
| 20260506124045 | 57 | 198 | 0.9 | 3.5 | 0.00 | 0.00 | 0.00 | 89 | 1009.1 |
| 20260506123543 | 57 | 360 | 0.9 | 2.6 | 0.00 | 0.00 | 0.00 | 89 | 1009.3 |
| 20260506123055 | 57 | 207 | 0.9 | 2.6 | 0.00 | 0.00 | 0.00 | 89 | 1009.5 |
| 20260506122541 | 57 | 360 | 0.0 | 2.6 | 0.00 | 0.00 | 0.00 | 90 | 1009.4 |
| 20260506122041 | 56 | 223 | 0.9 | 2.6 | 0.00 | 0.00 | 0.00 | 90 | 1009.6 |
| 20260506121557 | 56 | 360 | 0.9 | 7.0 | 0.00 | 0.00 | 0.00 | 89 | 1009.5 |
| 20260506121042 | 56 | 360 | 3.5 | 7.0 | 0.00 | 0.00 | 0.00 | 90 | 1009.5 |
| 20260506120542 | 57 | 230 | 3.5 | 7.0 | 0.00 | 0.00 | 0.00 | 90 | 1009.6 |
| 20260506115542 | 56 | 229 | 1.7 | 7.8 | 0.00 | 0.00 | 0.00 | 90 | 1009.6 |
| 20260506115042 | 56 | 203 | 3.5 | 7.8 | 0.00 | 0.00 | 0.00 | 90 | 1009.4 |
| 20260506114552 | 56 | 203 | 2.6 | 8.7 | 0.00 | 0.00 | 0.00 | 90 | 1009.4 |
| 20260506114046 | 56 | 213 | 4.3 | 8.7 | 0.00 | 0.00 | 0.00 | 91 | 1009.4 |
| 20260506113541 | 56 | 219 | 5.2 | 9.6 | 0.00 | 0.00 | 0.00 | 91 | 1009.4 |
| 20260506113049 | 56 | 360 | 5.2 | 9.6 | 0.00 | 0.00 | 0.00 | 91 | 1009.5 |
| 20260506112545 | 56 | 231 | 5.2 | 8.7 | 0.00 | 0.00 | 0.00 | 91 | 1009.5 |
| 20260506112041 | 56 | 360 | 0.9 | 7.8 | 0.00 | 0.00 | 0.00 | 91 | 1009.4 |
| 20260506111548 | 56 | 235 | 0.9 | 7.8 | 0.00 | 0.00 | 0.00 | 91 | 1009.5 |
| 20260506111042 | 56 | 235 | 3.5 | 7.8 | 0.00 | 0.00 | 0.00 | 91 | 1009.5 |
| 20260506110542 | 55 | 244 | 2.6 | 8.7 | 0.00 | 0.00 | 0.00 | 91 | 1009.4 |
| 20260506105542 | 55 | 221 | 2.6 | 8.7 | 0.00 | 0.00 | 0.00 | 92 | 1009.4 |
| 20260506105046 | 55 | 223 | 2.6 | 7.8 | 0.00 | 0.00 | 0.00 | 92 | 1009.4 |
| 20260506104557 | 55 | 214 | 1.7 | 6.1 | 0.00 | 0.00 | 0.00 | 92 | 1009.4 |
| 20260506104041 | 55 | 360 | 0.9 | 3.5 | 0.00 | 0.00 | 0.00 | 92 | 1009.4 |
| 20260506103541 | 55 | 360 | 0.9 | 3.5 | 0.00 | 0.00 | 0.00 | 92 | 1009.4 |
| 20260506103048 | 55 | 219 | 0.9 | 5.2 | 0.00 | 0.00 | 0.00 | 92 | 1009.4 |
| 20260506102544 | 54 | 238 | 0.9 | 5.2 | 0.00 | 0.00 | 0.00 | 92 | 1009.3 |
| 20260506102045 | 54 | 360 | 1.7 | 5.2 | 0.00 | 0.00 | 0.00 | 92 | 1009.6 |
| 20260506101547 | 54 | 215 | 0.9 | 1.7 | 0.00 | 0.00 | 0.00 | 92 | 1009.5 |
| 20260506101042 | 54 | 236 | 0.0 | 1.7 | 0.00 | 0.00 | 0.00 | 92 | 1009.6 |
| 20260506100544 | 54 | 240 | 0.0 | 1.7 | 0.00 | 0.00 | 0.00 | 91 | 1009.4 |
| 20260506100101 | 54 | 241 | 0.0 | 1.7 | 0.00 | 0.00 | 0.00 | 91 | 1009.3 |
| 20260506095542 | 54 | 0 | 0.0 | 1.7 | 0.00 | 0.00 | 0.00 | 91 | 1009.3 |
| 20260506095042 | 54 | 0 | 0.0 | 1.7 | 0.00 | 0.00 | 0.00 | 91 | 1009.2 |
| 20260506094555 | 54 | 0 | 0.0 | 1.7 | 0.00 | 0.00 | 0.00 | 91 | 1009.3 |
| 20260506094041 | 54 | 0 | 0.0 | 1.7 | 0.00 | 0.00 | 0.00 | 91 | 1009.3 |
| 20260506093541 | 54 | 0 | 0.0 | 2.6 | 0.00 | 0.00 | 0.00 | 91 | 1009.4 |
| 20260506093043 | 55 | 217 | 0.0 | 2.6 | 0.00 | 0.00 | 0.00 | 91 | 1009.3 |
| 20260506092542 | 55 | 0 | 0.0 | 1.7 | 0.00 | 0.00 | 0.00 | 90 | 1009.2 |
| 20260506092045 | 55 | 0 | 0.0 | 1.7 | 0.00 | 0.00 | 0.00 | 90 | 1009.3 |
| 20260506091543 | 55 | 0 | 0.0 | 1.7 | 0.00 | 0.00 | 0.00 | 91 | 1009.4 |
| 20260506091043 | 55 | 0 | 0.0 | 1.7 | 0.00 | 0.00 | 0.00 | 91 | 1009.5 |
| 20260506090541 | 55 | 226 | 0.0 | 1.7 | 0.00 | 0.00 | 0.00 | 91 | 1009.5 |
| 20260506090043 | 55 | 209 | 0.0 | 1.7 | 0.00 | 0.00 | 0.00 | 91 | 1009.4 |
| 20260506085541 | 55 | 0 | 0.0 | 1.7 | 0.00 | 0.00 | 0.00 | 91 | 1009.4 |
| 20260506085041 | 55 | 207 | 0.0 | 1.7 | 0.00 | 0.00 | 0.00 | 91 | 1009.4 |
| 20260506084615 | 55 | 186 | 0.0 | 1.7 | 0.00 | 0.00 | 0.00 | 91 | 1009.6 |
| 20260506084041 | 55 | 185 | 0.0 | 1.7 | 0.00 | 0.00 | 0.00 | 91 | 1009.6 |
| 20260506083540 | 54 | 0 | 0.0 | 1.7 | 0.00 | 0.00 | 0.00 | 91 | 1009.7 |
| 20260506083046 | 54 | 196 | 0.0 | 0.9 | 0.00 | 0.00 | 0.00 | 91 | 1009.6 |
| 20260506082541 | 54 | 0 | 0.0 | 0.9 | 0.00 | 0.00 | 0.00 | 91 | 1009.7 |
| 20260506082043 | 54 | 199 | 0.0 | 1.7 | 0.00 | 0.00 | 0.00 | 91 | 1009.7 |
| 20260506081553 | 54 | 0 | 0.0 | 1.7 | 0.00 | 0.00 | 0.00 | 91 | 1009.7 |
| 20260506081041 | 55 | 198 | 0.0 | 1.7 | 0.00 | 0.00 | 0.00 | 90 | 1009.7 |
| 20260506080542 | 55 | 195 | 0.9 | 1.7 | 0.00 | 0.00 | 0.00 | 90 | 1009.6 |
| 20260506073050 | 54 | 205 | 0.0 | 1.7 | 0.00 | 0.00 | 0.00 | 91 | 1010.0 |
| 20260506072541 | 54 | 0 | 0.0 | 1.7 | 0.00 | 0.00 | 0.00 | 90 | 1009.9 |
| 20260506072042 | 54 | 198 | 0.0 | 1.7 | 0.00 | 0.00 | 0.00 | 90 | 1009.8 |
| 20260506071550 | 54 | 0 | 0.0 | 0.9 | 0.00 | 0.00 | 0.00 | 90 | 1009.8 |
| 20260506071041 | 54 | 0 | 0.0 | 1.7 | 0.00 | 0.00 | 0.00 | 90 | 1009.8 |
| 20260506070541 | 54 | 0 | 0.0 | 1.7 | 0.00 | 0.00 | 0.00 | 90 | 1009.8 |
| 20260506062041 | 55 | 0 | 0.9 | 1.7 | 0.00 | 0.00 | 0.00 | 89 | 1009.7 |
| 20260506061549 | 55 | 203 | 0.9 | 1.7 | 0.00 | 0.00 | 0.00 | 89 | 1009.7 |
| 20260506061041 | 55 | 215 | 0.9 | 1.7 | 0.00 | 0.00 | 0.00 | 89 | 1009.8 |
| 20260506060541 | 55 | 192 | 0.0 | 1.7 | 0.00 | 0.00 | 0.00 | 89 | 1009.8 |
| 20260506051041 | 56 | 223 | 0.0 | 7.0 | 0.00 | 0.00 | 0.00 | 86 | 1010.0 |
| 20260506050542 | 56 | 360 | 0.9 | 7.0 | 0.00 | 0.00 | 0.00 | 86 | 1010.0 |
| 20260506045042 | 57 | 360 | 0.9 | 7.8 | 0.00 | 0.00 | 0.00 | 85 | 1010.1 |
| 20260506044552 | 57 | 237 | 1.7 | 8.7 | 0.00 | 0.00 | 0.00 | 85 | 1010.1 |
| 20260506044045 | 57 | 242 | 3.5 | 8.7 | 0.00 | 0.00 | 0.00 | 85 | 1010.1 |
| 20260506043544 | 57 | 224 | 2.6 | 7.0 | 0.00 | 0.00 | 0.00 | 86 | 1010.1 |
| 20260506043048 | 57 | 232 | 1.7 | 6.1 | 0.00 | 0.00 | 0.00 | 86 | 1010.1 |
| 20260506042541 | 57 | 233 | 0.9 | 7.0 | 0.00 | 0.00 | 0.00 | 86 | 1010.1 |
| 20260506042041 | 57 | 360 | 0.9 | 7.0 | 0.00 | 0.00 | 0.00 | 85 | 1010.0 |
| 20260506041606 | 57 | 231 | 2.6 | 7.0 | 0.00 | 0.00 | 0.00 | 84 | 1010.1 |
| 20260506041041 | 58 | 360 | 3.5 | 7.0 | 0.00 | 0.00 | 0.00 | 84 | 1010.1 |
| 20260506040541 | 58 | 242 | 2.6 | 7.0 | 0.00 | 0.00 | 0.00 | 83 | 1010.0 |
| 20260506040049 | 59 | 217 | 3.5 | 7.0 | 0.00 | 0.00 | 0.00 | 83 | 1010.1 |
| 20260506035541 | 59 | 229 | 3.5 | 7.0 | 0.00 | 0.00 | 0.00 | 83 | 1010.1 |
| 20260506035041 | 59 | 234 | 3.5 | 7.0 | 0.00 | 0.00 | 0.00 | 83 | 1010.1 |
| 20260506034555 | 59 | 224 | 0.9 | 2.6 | 0.00 | 0.00 | 0.00 | 82 | 1010.1 |
| 20260506034043 | 59 | 220 | 0.9 | 1.7 | 0.00 | 0.00 | 0.00 | 81 | 1010.0 |
| 20260506033542 | 59 | 217 | 0.9 | 1.7 | 0.00 | 0.00 | 0.00 | 81 | 1010.0 |
| 20260506033052 | 59 | 360 | 0.9 | 1.7 | 0.00 | 0.00 | 0.00 | 81 | 1010.0 |
| 20260506032541 | 59 | 233 | 0.9 | 1.7 | 0.00 | 0.00 | 0.00 | 80 | 1010.0 |
| 20260506032041 | 60 | 0 | 0.9 | 1.7 | 0.00 | 0.00 | 0.00 | 80 | 1010.0 |
| 20260506031553 | 60 | 360 | 0.9 | 1.7 | 0.00 | 0.00 | 0.00 | 80 | 1009.9 |
| 20260506031042 | 60 | 243 | 0.9 | 1.7 | 0.00 | 0.00 | 0.00 | 79 | 1009.9 |
| 20260506030544 | 60 | 250 | 0.9 | 7.8 | 0.00 | 0.00 | 0.00 | 79 | 1010.1 |
| 20260506030047 | 60 | 360 | 1.7 | 7.8 | 0.00 | 0.00 | 0.00 | 79 | 1010.1 |
| 20260506025541 | 60 | 250 | 0.9 | 5.2 | 0.00 | 0.00 | 0.00 | 80 | 1010.0 |
| 20260506025044 | 59 | 236 | 1.7 | 7.8 | 0.00 | 0.00 | 0.00 | 80 | 1010.1 |
| 20260506024544 | 59 | 246 | 0.9 | 7.8 | 0.00 | 0.00 | 0.00 | 80 | 1010.1 |
| 20260506024042 | 60 | 238 | 3.5 | 7.8 | 0.00 | 0.00 | 0.00 | 80 | 1010.1 |
| 20260506023541 | 60 | 228 | 4.3 | 7.8 | 0.00 | 0.00 | 0.00 | 80 | 1010.0 |
| 20260506023103 | 59 | 248 | 0.9 | 12.2 | 0.00 | 0.00 | 0.00 | 80 | 1010.1 |
| 20260506022542 | 59 | 271 | 3.5 | 12.2 | 0.00 | 0.00 | 0.00 | 80 | 1010.1 |
| 20260506022042 | 59 | 286 | 0.9 | 6.1 | 0.00 | 0.00 | 0.00 | 81 | 1010.1 |
| 20260506021608 | 59 | 258 | 1.7 | 6.1 | 0.00 | 0.00 | 0.00 | 80 | 1009.9 |
| 20260506021049 | 59 | 240 | 0.9 | 7.0 | 0.00 | 0.00 | 0.00 | 80 | 1009.8 |
| 20260506020541 | 59 | 248 | 0.9 | 8.7 | 0.00 | 0.00 | 0.00 | 80 | 1009.9 |
| 20260506020048 | 59 | 244 | 0.9 | 8.7 | 0.00 | 0.00 | 0.00 | 79 | 1009.9 |
| 20260506015542 | 59 | 229 | 3.5 | 10.4 | 0.00 | 0.00 | 0.00 | 79 | 1009.8 |
| 20260506015046 | 59 | 255 | 0.9 | 10.4 | 0.00 | 0.00 | 0.00 | 78 | 1009.7 |
| 20260506014604 | 60 | 266 | 1.7 | 8.7 | 0.00 | 0.00 | 0.00 | 78 | 1009.6 |
| 20260506014045 | 60 | 278 | 3.5 | 8.7 | 0.00 | 0.00 | 0.00 | 78 | 1009.6 |
| 20260506013544 | 60 | 275 | 3.5 | 8.7 | 0.00 | 0.00 | 0.00 | 78 | 1009.5 |
| 20260506013057 | 60 | 283 | 0.9 | 9.6 | 0.00 | 0.00 | 0.00 | 77 | 1009.5 |
| 20260506012541 | 61 | 240 | 5.2 | 12.2 | 0.00 | 0.00 | 0.00 | 76 | 1009.2 |
| 20260506012042 | 61 | 249 | 7.0 | 17.4 | 0.00 | 0.00 | 0.00 | 76 | 1009.3 |
| 20260506011608 | 61 | 227 | 7.8 | 18.2 | 0.00 | 0.00 | 0.00 | 75 | 1009.2 |
| 20260506011042 | 61 | 248 | 8.7 | 19.1 | 0.00 | 0.00 | 0.00 | 75 | 1009.1 |
| 20260506010542 | 61 | 212 | 8.7 | 19.1 | 0.00 | 0.00 | 0.00 | 75 | 1008.9 |
| 20260506010056 | 62 | 236 | 10.4 | 19.1 | 0.00 | 0.00 | 0.00 | 75 | 1008.8 |
| 20260506005546 | 61 | 238 | 8.7 | 15.6 | 0.00 | 0.00 | 0.00 | 76 | 1008.9 |
| 20260506005044 | 61 | 259 | 10.4 | 15.6 | 0.00 | 0.00 | 0.00 | 76 | 1008.9 |
| 20260506004548 | 60 | 237 | 7.8 | 13.9 | 0.00 | 0.00 | 0.00 | 77 | 1008.7 |
| 20260506004041 | 60 | 274 | 7.8 | 13.0 | 0.00 | 0.00 | 0.00 | 76 | 1008.5 |
| 20260506003541 | 61 | 253 | 7.8 | 18.2 | 0.00 | 0.00 | 0.00 | 76 | 1008.4 |
| 20260506003055 | 61 | 239 | 8.7 | 20.9 | 0.00 | 0.00 | 0.00 | 75 | 1008.4 |
| 20260506002542 | 61 | 251 | 10.4 | 20.9 | 0.00 | 0.00 | 0.00 | 76 | 1008.6 |
| 20260506002041 | 61 | 224 | 12.2 | 20.0 | 0.00 | 0.00 | 0.00 | 76 | 1008.3 |
| 20260506001554 | 61 | 256 | 6.1 | 13.0 | 0.00 | 0.00 | 0.00 | 76 | 1008.3 |
| 20260506001041 | 60 | 252 | 5.2 | 10.4 | 0.00 | 0.00 | 0.00 | 77 | 1008.2 |
| 20260506000544 | 60 | 261 | 2.6 | 10.4 | 0.00 | 0.00 | 0.00 | 77 | 1008.3 |
| 20260506000051 | 60 | 250 | 2.6 | 14.8 | 0.00 | 0.00 | 0.00 | 76 | 1008.2 |
| 20260505235544 | 61 | 237 | 5.2 | 17.4 | 0.00 | 0.00 | 0.00 | 76 | 1008.1 |
| 20260505235041 | 60 | 227 | 7.8 | 17.4 | 0.00 | 0.00 | 0.00 | 76 | 1007.9 |
| 20260505234542 | 60 | 241 | 8.7 | 20.9 | 0.00 | 0.00 | 0.00 | 76 | 1007.7 |
| 20260505234042 | 61 | 228 | 12.2 | 20.9 | 0.00 | 0.00 | 0.00 | 75 | 1007.6 |
| 20260505233541 | 60 | 203 | 13.0 | 18.2 | 0.00 | 0.00 | 0.00 | 76 | 1007.7 |
| 20260505233052 | 60 | 234 | 12.2 | 20.9 | 0.00 | 0.00 | 0.00 | 76 | 1007.5 |
| 20260505232541 | 60 | 217 | 13.9 | 20.0 | 0.00 | 0.00 | 0.00 | 76 | 1007.3 |
| 20260505232043 | 60 | 214 | 13.0 | 20.0 | 0.00 | 0.00 | 0.00 | 76 | 1007.3 |
| 20260505231604 | 61 | 212 | 13.0 | 22.6 | 0.00 | 0.00 | 0.00 | 75 | 1007.3 |
| 20260505231041 | 61 | 215 | 13.0 | 22.6 | 0.00 | 0.00 | 0.00 | 75 | 1007.1 |
| 20260505230543 | 61 | 210 | 13.9 | 22.6 | 0.00 | 0.00 | 0.00 | 75 | 1007.1 |
| 20260505230051 | 61 | 200 | 13.0 | 22.6 | 0.00 | 0.00 | 0.00 | 75 | 1007.1 |
| 20260505225542 | 61 | 210 | 13.0 | 22.6 | 0.00 | 0.00 | 0.00 | 75 | 1007.1 |
| 20260505225042 | 61 | 165 | 13.0 | 21.7 | 0.00 | 0.00 | 0.00 | 75 | 1007.0 |
| 20260505224551 | 61 | 193 | 11.3 | 18.2 | 0.00 | 0.00 | 0.00 | 75 | 1007.0 |
| 20260505224041 | 61 | 205 | 12.2 | 18.2 | 0.00 | 0.00 | 0.00 | 75 | 1007.1 |
| 20260505223542 | 61 | 228 | 11.3 | 18.2 | 0.00 | 0.00 | 0.00 | 76 | 1007.2 |
| 20260505223054 | 61 | 224 | 11.3 | 20.0 | 0.00 | 0.00 | 0.00 | 76 | 1007.3 |
| 20260505222545 | 61 | 218 | 11.3 | 21.7 | 0.00 | 0.00 | 0.00 | 76 | 1007.3 |
| 20260505222042 | 61 | 218 | 13.9 | 21.7 | 0.00 | 0.00 | 0.00 | 75 | 1007.3 |
| 20260505221555 | 61 | 219 | 13.0 | 20.0 | 0.00 | 0.00 | 0.00 | 75 | 1007.2 |
| 20260505221042 | 62 | 213 | 13.9 | 22.6 | 0.00 | 0.00 | 0.00 | 75 | 1007.2 |
| 20260505220543 | 62 | 213 | 14.8 | 22.6 | 0.00 | 0.00 | 0.00 | 74 | 1007.2 |
| 20260505215543 | 62 | 223 | 8.7 | 16.5 | 0.00 | 0.00 | 0.00 | 74 | 1007.3 |
| 20260505215042 | 63 | 219 | 8.7 | 13.9 | 0.00 | 0.00 | 0.00 | 73 | 1007.2 |
| 20260505214556 | 63 | 248 | 5.2 | 12.2 | 0.00 | 0.00 | 0.00 | 74 | 1007.3 |
| 20260505214043 | 64 | 242 | 0.9 | 9.6 | 0.00 | 0.00 | 0.00 | 74 | 1007.3 |
| 20260505213541 | 63 | 239 | 3.5 | 9.6 | 0.00 | 0.00 | 0.00 | 73 | 1007.2 |
| 20260505213053 | 64 | 234 | 1.7 | 8.7 | 0.00 | 0.00 | 0.00 | 73 | 1007.4 |
| 20260505212541 | 64 | 247 | 0.9 | 9.6 | 0.00 | 0.00 | 0.00 | 73 | 1007.4 |
| 20260505212042 | 64 | 237 | 5.2 | 9.6 | 0.00 | 0.00 | 0.00 | 72 | 1007.2 |
| 20260505211546 | 65 | 216 | 4.3 | 13.0 | 0.00 | 0.00 | 0.00 | 70 | 1007.3 |
| 20260505211043 | 66 | 187 | 5.2 | 13.0 | 0.00 | 0.00 | 0.00 | 71 | 1007.3 |
| 20260505210541 | 65 | 287 | 5.2 | 12.2 | 0.00 | 0.00 | 0.00 | 72 | 1007.2 |
| 20260505210055 | 65 | 277 | 3.5 | 12.2 | 0.00 | 0.00 | 0.00 | 73 | 1007.3 |
| 20260505205541 | 64 | 212 | 5.2 | 11.3 | 0.00 | 0.00 | 0.00 | 74 | 1007.5 |
| 20260505205044 | 63 | 250 | 4.3 | 9.6 | 0.00 | 0.00 | 0.00 | 74 | 1007.3 |
| 20260505204545 | 63 | 285 | 0.0 | 8.7 | 0.00 | 0.00 | 0.00 | 75 | 1007.3 |
| 20260505204041 | 63 | 244 | 2.6 | 8.7 | 0.00 | 0.00 | 0.00 | 75 | 1007.3 |
| 20260505203545 | 62 | 223 | 1.7 | 7.8 | 0.00 | 0.00 | 0.00 | 77 | 1007.1 |
| 20260505203107 | 62 | 211 | 2.6 | 9.6 | 0.00 | 0.00 | 0.00 | 77 | 1007.2 |
| 20260505202543 | 61 | 0 | 4.3 | 9.6 | 0.00 | 0.00 | 0.00 | 78 | 1007.3 |
| 20260505202042 | 61 | 232 | 4.3 | 10.4 | 0.00 | 0.00 | 0.00 | 77 | 1007.4 |
| 20260505201557 | 62 | 360 | 1.7 | 12.2 | 0.00 | 0.00 | 0.00 | 77 | 1007.3 |
| 20260505201045 | 61 | 221 | 6.1 | 12.2 | 0.00 | 0.00 | 0.00 | 77 | 1007.5 |
| 20260505200542 | 61 | 206 | 7.0 | 13.9 | 0.00 | 0.00 | 0.00 | 77 | 1007.5 |
| 20260505200055 | 61 | 159 | 7.0 | 13.9 | 0.00 | 0.00 | 0.00 | 78 | 1007.4 |
| 20260505195544 | 61 | 222 | 8.7 | 13.9 | 0.00 | 0.00 | 0.00 | 78 | 1007.5 |
| 20260505195041 | 61 | 208 | 6.1 | 13.0 | 0.00 | 0.00 | 0.00 | 77 | 1007.5 |
| 20260505194547 | 62 | 187 | 7.0 | 13.0 | 0.00 | 0.00 | 0.00 | 77 | 1007.7 |
| 20260505194042 | 62 | 146 | 7.0 | 17.4 | 0.00 | 0.00 | 0.00 | 77 | 1007.6 |
| 20260505193542 | 62 | 178 | 8.7 | 17.4 | 0.00 | 0.00 | 0.00 | 77 | 1007.6 |
| 20260505193052 | 62 | 186 | 9.6 | 15.6 | 0.00 | 0.00 | 0.00 | 77 | 1007.7 |
| 20260505192607 | 62 | 198 | 8.7 | 13.9 | 0.00 | 0.00 | 0.00 | 77 | 1007.7 |
| 20260505192044 | 62 | 215 | 7.0 | 13.9 | 0.00 | 0.00 | 0.00 | 77 | 1007.8 |
| 20260505191603 | 62 | 209 | 7.8 | 13.9 | 0.00 | 0.00 | 0.00 | 77 | 1008.0 |
| 20260505191041 | 62 | 196 | 8.7 | 13.0 | 0.00 | 0.00 | 0.00 | 76 | 1008.2 |
| 20260505190541 | 62 | 153 | 6.1 | 13.0 | 0.00 | 0.00 | 0.00 | 76 | 1008.3 |
| 20260505190100 | 62 | 188 | 7.0 | 12.2 | 0.00 | 0.00 | 0.00 | 77 | 1008.3 |
| 20260505185542 | 62 | 221 | 2.6 | 9.6 | 0.00 | 0.00 | 0.00 | 77 | 1008.5 |
| 20260505185041 | 63 | 203 | 4.3 | 11.3 | 0.00 | 0.00 | 0.00 | 77 | 1008.6 |
| 20260505184555 | 62 | 178 | 5.2 | 11.3 | 0.00 | 0.00 | 0.00 | 78 | 1008.5 |
| 20260505184042 | 61 | 168 | 6.1 | 13.0 | 0.00 | 0.00 | 0.00 | 78 | 1008.6 |
| 20260505183544 | 62 | 180 | 6.1 | 13.0 | 0.00 | 0.00 | 0.00 | 78 | 1008.5 |
| 20260505183053 | 62 | 203 | 7.0 | 13.0 | 0.00 | 0.00 | 0.00 | 77 | 1008.5 |
| 20260505182541 | 62 | 175 | 6.1 | 13.9 | 0.00 | 0.00 | 0.00 | 78 | 1008.6 |
| 20260505182041 | 62 | 182 | 7.0 | 13.9 | 0.00 | 0.00 | 0.00 | 78 | 1008.6 |
| 20260505181556 | 62 | 187 | 7.8 | 14.8 | 0.00 | 0.00 | 0.00 | 78 | 1008.5 |
| 20260505181041 | 62 | 185 | 7.8 | 14.8 | 0.00 | 0.00 | 0.00 | 78 | 1008.5 |
| 20260505180541 | 62 | 200 | 6.1 | 14.8 | 0.00 | 0.00 | 0.00 | 77 | 1008.6 |
| 20260505180053 | 62 | 187 | 8.7 | 14.8 | 0.00 | 0.00 | 0.00 | 77 | 1008.6 |
| 20260505175541 | 62 | 197 | 7.0 | 13.0 | 0.00 | 0.00 | 0.00 | 76 | 1008.5 |
| 20260505175041 | 62 | 176 | 7.0 | 13.0 | 0.00 | 0.00 | 0.00 | 77 | 1008.7 |
| 20260505174550 | 63 | 360 | 4.3 | 9.6 | 0.00 | 0.00 | 0.00 | 77 | 1008.6 |
| 20260505174042 | 62 | 185 | 5.2 | 11.3 | 0.00 | 0.00 | 0.00 | 77 | 1008.6 |
| 20260505173541 | 62 | 157 | 5.2 | 11.3 | 0.00 | 0.00 | 0.00 | 78 | 1008.6 |
| 20260505173052 | 63 | 186 | 4.3 | 11.3 | 0.00 | 0.00 | 0.00 | 77 | 1008.7 |
| 20260505172541 | 63 | 212 | 6.1 | 15.6 | 0.00 | 0.00 | 0.00 | 77 | 1008.6 |
| 20260505172042 | 63 | 208 | 7.0 | 15.6 | 0.00 | 0.00 | 0.00 | 76 | 1008.6 |
| 20260505171550 | 64 | 177 | 5.2 | 8.7 | 0.00 | 0.00 | 0.00 | 75 | 1008.9 |
| 20260505171042 | 64 | 163 | 2.6 | 7.0 | 0.00 | 0.00 | 0.00 | 75 | 1008.7 |
| 20260505170541 | 64 | 207 | 1.7 | 7.0 | 0.00 | 0.00 | 0.00 | 75 | 1008.9 |
| 20260505170103 | 64 | 208 | 4.3 | 7.0 | 0.00 | 0.00 | 0.00 | 75 | 1009.1 |
| 20260505165540 | 64 | 242 | 4.3 | 7.8 | 0.00 | 0.00 | 0.00 | 74 | 1009.1 |
| 20260505165045 | 65 | 222 | 2.6 | 7.8 | 0.00 | 0.00 | 0.00 | 72 | 1009.1 |
| 20260505164553 | 66 | 184 | 0.0 | 7.0 | 0.00 | 0.00 | 0.00 | 73 | 1009.1 |
| 20260505164042 | 65 | 200 | 2.6 | 7.0 | 0.00 | 0.00 | 0.00 | 73 | 1009.1 |
| 20260505163541 | 65 | 184 | 2.6 | 6.1 | 0.00 | 0.00 | 0.00 | 72 | 1009.1 |
| 20260505163045 | 65 | 180 | 0.9 | 2.6 | 0.00 | 0.00 | 0.00 | 73 | 1009.2 |
| 20260505162542 | 64 | 142 | 0.0 | 4.3 | 0.00 | 0.00 | 0.00 | 74 | 1009.3 |
| 20260505162042 | 64 | 171 | 0.9 | 4.3 | 0.00 | 0.00 | 0.00 | 74 | 1009.4 |
| 20260505161042 | 64 | 210 | 0.9 | 2.6 | 0.00 | 0.00 | 0.00 | 74 | 1009.4 |
| 20260505160542 | 64 | 202 | 0.9 | 2.6 | 0.00 | 0.00 | 0.00 | 73 | 1009.6 |
| 20260505153100 | 64 | 210 | 0.9 | 7.0 | 0.00 | 0.00 | 0.00 | 73 | 1009.9 |
| 20260505152541 | 63 | 218 | 3.5 | 7.0 | 0.00 | 0.00 | 0.00 | 75 | 1010.0 |
| 20260505152041 | 63 | 216 | 3.5 | 7.0 | 0.00 | 0.00 | 0.00 | 75 | 1010.0 |
| 20260505151559 | 62 | 360 | 4.3 | 7.0 | 0.00 | 0.00 | 0.00 | 76 | 1010.1 |
| 20260505151041 | 62 | 212 | 2.6 | 7.0 | 0.00 | 0.00 | 0.00 | 77 | 1010.3 |
| 20260505150542 | 62 | 223 | 3.5 | 7.8 | 0.00 | 0.00 | 0.00 | 77 | 1010.3 |